Flag for U.S.A. Weather past 2 weeks in Carrollton, Texas, U.S.A.

Now
83 °F

Sunny.


Feels Like: 85 °F
Forecast: 71 / 91 °F
Wind: No wind

Location: Dallas Love Field

Current Time: Sep 21, 2014 at 11:14:36 AM

Latest Report: Sep 21, 2014 at 9:53 AM


Visibility: 10 mi

Pressure: 30.08 "Hg

Humidity: 57%

Dew point: 66 °F

Location of CarrolltonLocation

Historic Weather in Carrollton — Graph

°F

Carrollton temperature yesterday

Maximum temperature yesterday: 92 °F (at 4:53 PM)
Minimum temperature yesterday: 72 °F (at 5:53 AM)
Average temperature yesterday: 82 °F

Past Weeks' High & Low Weather Summary

 TemperatureHumidityPressure
High100 °F (Sep 10, 4:53 PM)96% (Sep 12, 10:53 AM)30.29 "Hg (Sep 12, 10:53 AM)
Low57 °F (Sep 13, 5:53 AM)33% (Sep 20, 4:53 PM)29.70 "Hg (Sep 10, 5:53 PM)
Average79 °F67%29.99 "Hg
* Reported Sep 6 9:53 AM — Sep 21 9:53 AM, Carrollton, Weather by CustomWeather, © 2014

Note: Actual official high and low records may vary slightly from our data, if they occured in-between our weather recording intervals... More about our weather records

Advertising

Carrollton weather history for previous 24 hours

 ConditionsComfort  
Time TempWeatherWind HumidityBarometerVisibility
9:53 AM
Sep 21
83 °FSunny.No wind57%30.08 "Hg10 mi
8:53 AM80 °FSunny.No wind62%30.07 "Hg10 mi
7:53 AM73 °FClear.No wind79%30.06 "Hg10 mi
6:53 AM71 °FClear.5 mph84%30.03 "Hg10 mi
5:53 AM71 °FClear.3 mph84%30.02 "Hg10 mi
4:53 AM72 °FClear.3 mph81%30.01 "Hg10 mi
3:53 AM74 °FClear.No wind71%29.99 "Hg10 mi
2:53 AM76 °FClear.5 mph67%29.99 "Hg10 mi
1:53 AM78 °FPassing clouds.3 mph60%30.00 "Hg10 mi
12:53 AM79 °FClear.3 mph58%29.99 "Hg10 mi
11:53 PM
Sep 20
80 °FClear.7 mph56%29.99 "Hg10 mi
10:53 PM81 °FClear.6 mph53%29.99 "Hg10 mi
9:53 PM83 °FClear.6 mph50%29.97 "Hg10 mi
8:53 PM84 °FClear.9 mph46%29.95 "Hg10 mi
7:53 PM86 °FPassing clouds.10 mph42%29.93 "Hg10 mi
6:53 PM89 °FPassing clouds.14 mph36%29.90 "Hg10 mi
5:53 PM91 °FScattered clouds.17 mph33%29.90 "Hg10 mi
4:53 PM92 °FPassing clouds.10 mph33%29.90 "Hg10 mi
3:53 PM91 °FBroken clouds.10 mph38%29.93 "Hg10 mi
2:53 PM90 °FBroken clouds.14 mph41%29.94 "Hg10 mi
1:53 PM88 °FBroken clouds.9 mph46%29.96 "Hg10 mi
12:53 PM88 °FBroken clouds.10 mph52%29.98 "Hg10 mi
Weather by CustomWeather, © 2014

See weather overviewHow to use our weather pages